This is the latest recevied weather packets stored in our database for station/object KK7KHO. If no packets are shown the sender has not sent any weather packets the latest 10 day(s).
| Time | Temp. | Humidity | Pressure | Rain* | Wind** | Luminosity | Snow |
|---|---|---|---|---|---|---|---|
| 1777890511 | 11.67° C | 84% | 1008.6 hPa | 0 mm | - | 0 W/m² | - |
| 1777890206 | 11.11° C | 86% | 1008.7 hPa | 0 mm | - | 0 W/m² | - |
| 1777889903 | 11.67° C | 85% | 1008.6 hPa | 0 mm | - | 0 W/m² | - |
| 1777889601 | 11.67° C | 85% | 1008.7 hPa | 0 mm | - | 0 W/m² | - |
| 1777889298 | 11.67° C | 84% | 1008.9 hPa | 0 mm | - | 0 W/m² | - |
| 1777888995 | 12.22° C | 82% | 1008.8 hPa | 0 mm | - | 0 W/m² | - |
| 1777888693 | 12.22° C | 82% | 1008.9 hPa | 0 mm | - | 0 W/m² | - |
| 1777888388 | 12.22° C | 82% | 1008.8 hPa | 0 mm | - | 0 W/m² | - |
| 1777888085 | 11.67° C | 83% | 1008.7 hPa | 0 mm | - | 0 W/m² | - |
| 1777887783 | 11.67° C | 84% | 1008.7 hPa | 0 mm | - | 0 W/m² | - |
| 1777887479 | 11.11° C | 85% | 1008.9 hPa | 0 mm | - | 0 W/m² | - |
| 1777887175 | 11.11° C | 85% | 1008.7 hPa | 0 mm | - | 0 W/m² | - |
| 1777886871 | 11.67° C | 83% | 1008.8 hPa | 0 mm | - | 0 W/m² | - |
| 1777886566 | 11.67° C | 82% | 1008.7 hPa | 0 mm | - | 0 W/m² | - |
| 1777886264 | 11.67° C | 82% | 1008.6 hPa | 0 mm | - | 0 W/m² | - |
| 1777885962 | 11.67° C | 82% | 1008.7 hPa | 0 mm | - | 0 W/m² | - |
| 1777885661 | 12.22° C | 81% | 1008.4 hPa | 0 mm | - | 0 W/m² | - |
| 1777885358 | 12.22° C | 81% | 1008.6 hPa | 0 mm | - | 0 W/m² | - |
| 1777885057 | 12.78° C | 80% | 1008.7 hPa | 0 mm | - | 0 W/m² | - |
| 1777884752 | 12.78° C | 80% | 1008.8 hPa | 0 mm | - | 0 W/m² | - |
| 1777884449 | 12.78° C | 80% | 1008.8 hPa | 0 mm | - | 0 W/m² | - |
| 1777884146 | 12.78° C | 79% | 1008.7 hPa | 0 mm | - | 0 W/m² | - |
| 1777883843 | 12.78° C | 80% | 1008.9 hPa | 0 mm | - | 0 W/m² | - |
| 1777883540 | 12.78° C | 79% | 1008.7 hPa | 0 mm | - | 0 W/m² | - |
| 1777883235 | 12.78° C | 79% | 1008.7 hPa | 0 mm | - | 0 W/m² | - |
* Rain latest hour (hover to see other rain measurements)
** Current wind speed in m/s (hover to see current wind gust speed)